Track FLOCK 3S 1 now! 10-day predictions FLOCK 3S 1 is classified as:
1 43769U 18099M 21111.51447995 .00000225 00000-0 25597-4 0 9997 2 43769 97.6657 182.4898 0012888 242.6351 117.3559 14.95240088129948